Weather History for Missoula, MT

Change the Weather History Date:

Sunday, May 26, 2013

  Actual Average Record
Temperature  
Mean Temperature 53 °F 56 °F  
Max Temperature 71 °F 70 °F 93 °F (1986)
Min Temperature 35 °F 43 °F 26 °F (1893)
Degree Days  
Heating Degree Days 12 9  
Month to date heating degree days 258 317  
Since 1 July heating degree days 6737 7080  
Cooling Degree Days 0 0  
Month to date cooling degree days 4 0  
Year to date cooling degree days 4 0  
Growing Degree Days 3 (Base 50)    
Moisture  
Dew Point 39 °F    
Average Humidity 62    
Maximum Humidity 92    
Minimum Humidity 31    
Precipitation  
Precipitation T in 0.08 in 0.99 in (1998)
Month to date precipitation 1.02 1.58  
Year to date precipitation 3.76 5.35  
Snow  
Snow 0.00 in - - ()
Month to date snowfall T  
Year to date snowfall 27.4  
Since 1 July snowfall 48.5  
Snow Depth 0.00 in    
Sea Level Pressure  
Sea Level Pressure 29.95 in    
Wind  
Wind Speed 5 mph (WSW)    
Max Wind Speed 24 mph    
Max Gust Speed 30 mph    
Visibility 10 miles    
Events Rain    
T = Trace of Precipitation, MM = Missing Value Source: NWS Daily Summary

Daily Weather History Graph

Daily Weather History Graph

Search for Another Location

Airport:

Trip Planner

Search our weather history database for the weather conditions in past years. The results will help you decide how hot, cold, wet, or windy it might be!

Date:

Astronomy

May. 26, 2013 Rise Set
Actual Time 5:49 AM MDT 9:17 PM MDT
Civil Twilight 5:11 AM MDT 9:55 PM MDT
Nautical Twilight 4:22 AM MDT 10:45 PM MDT
Astronomical Twilight 3:16 AM MDT 11:51 PM MDT
Moon 11:06 PM MDT (5/26) 7:24 AM MDT (5/26)
Length of Visible Light 16h 43m
Length of Day
15h 28m
Waning Gibbous, 96% of the Moon is Illuminated
May 26
Waning Gibbous
May 31
Last Quarter
Jun 8
New
Jun 16
First Quarter
Jun 23
Full

Hourly Weather History & Observations

Time (MDT) Temp. Windchill Dew Point Humidity Pressure Visibility Wind Dir Wind Speed Gust Speed Precip Events Conditions
12:53 AM 42.1 °F 40.2 °F 35.1 °F 76% 30.04 in 10.0 mi NNW 3.5 mph - N/A   Clear
1:53 AM 41.0 °F - 34.0 °F 76% 30.03 in 10.0 mi Calm Calm - N/A   Clear
2:53 AM 39.9 °F 36.7 °F 34.0 °F 79% 30.01 in 10.0 mi WNW 4.6 mph - N/A   Clear
3:53 AM 39.0 °F - 34.0 °F 82% 30.02 in 10.0 mi Calm Calm - N/A   Clear
4:53 AM 36.0 °F - 33.1 °F 89% 30.03 in 10.0 mi Calm Calm - N/A   Clear
5:53 AM 37.0 °F - 33.1 °F 86% 30.04 in 10.0 mi Calm Calm - N/A   Clear
6:53 AM 37.0 °F 33.3 °F 34.0 °F 89% 30.04 in 10.0 mi NW 4.6 mph - N/A   Clear
7:53 AM 42.1 °F - 36.0 °F 79% 30.04 in 10.0 mi Calm Calm - N/A   Clear
8:53 AM 46.0 °F - 37.0 °F 71% 30.01 in 10.0 mi Calm Calm - N/A   Clear
9:53 AM 50.0 °F - 37.0 °F 61% 29.99 in 10.0 mi Calm Calm - N/A   Clear
10:53 AM 57.0 °F - 37.0 °F 47% 29.94 in 10.0 mi Calm Calm - N/A   Clear
11:53 AM 62.1 °F - 39.0 °F 43% 29.92 in 10.0 mi West 5.8 mph - N/A   Clear
12:53 PM 66.0 °F - 37.9 °F 36% 29.89 in 10.0 mi Calm Calm - N/A   Clear
1:53 PM 69.1 °F - 37.0 °F 31% 29.86 in 10.0 mi SW 6.9 mph - N/A   Clear
2:53 PM 66.0 °F - 37.9 °F 36% 29.85 in 10.0 mi West 9.2 mph - N/A   Scattered Clouds
3:53 PM 66.9 °F - 37.9 °F 34% 29.86 in 10.0 mi NW 5.8 mph - N/A   Overcast
4:53 PM 63.0 °F - 39.9 °F 43% 29.89 in 10.0 mi West 12.7 mph - 0.00 in   Overcast
5:53 PM 62.1 °F - 42.1 °F 48% 29.90 in 10.0 mi North 6.9 mph - 0.00 in Rain Light Rain
6:53 PM 60.1 °F - 44.1 °F 55% 29.93 in 10.0 mi South 9.2 mph - N/A   Mostly Cloudy
7:53 PM 57.9 °F - 44.1 °F 60% 29.92 in 10.0 mi SSE 10.4 mph - N/A   Overcast
8:53 PM 57.9 °F - 45.0 °F 62% 29.92 in 10.0 mi SE 8.1 mph - N/A   Overcast
9:53 PM 55.9 °F - 45.0 °F 67% 29.93 in 10.0 mi SE 6.9 mph - N/A   Mostly Cloudy
10:53 PM 55.9 °F - 46.0 °F 69% 29.92 in 10.0 mi East 9.2 mph - N/A   Overcast
11:53 PM 55.0 °F - 44.1 °F 67% 29.92 in 10.0 mi SSE 11.5 mph - N/A   Overcast